Location: Betpouey
(42.8833°N, 0.0333°E)
Time: 07:49:05
(UTC+00:00)

Cosmos 1934 Rocket - Pass Details

Date: 01 December 2020
Orbit: 937 x 1000 km, 83.0° (Epoch: 17 January)

Event Time Altitude Azimuth Distance (km) Brightness Sun altitude
Rises 18:59:18 0° 351° (N) 3,731 7.1 -27.3°
Reaches altitude 10° 19:01:51 10° 351° (N) 2,774 6.4 -27.8°
Maximum altitude 19:08:14 84° 265° (W) 1,002 4.0 -29.0°
Drops below altitude 10° 19:14:30 10° 177° (S) 2,723 6.3 -30.1°
Sets 19:16:59 0° 177° (S) 3,658 7.0 -30.6°
